Year,Month,Day,Hour,Minute,Value (Times are PST for temperature in C)
2013,07,16,00,00,15.00
2013,07,16,00,01,15.00
2013,07,16,00,02,15.00
2013,07,16,00,03,15.00
2013,07,16,00,04,15.00
2013,07,16,00,05,15.00
2013,07,16,00,06,15.00
2013,07,16,00,07,15.00
2013,07,16,00,08,15.00
2013,07,16,00,09,15.00
2013,07,16,00,10,15.00
2013,07,16,00,11,15.00
2013,07,16,00,12,14.90
2013,07,16,00,13,14.90
2013,07,16,00,14,14.90
2013,07,16,00,15,14.90
2013,07,16,00,16,14.80
2013,07,16,00,17,14.80
2013,07,16,00,18,14.80
2013,07,16,00,19,14.80
2013,07,16,00,20,14.80
2013,07,16,00,21,14.80
2013,07,16,00,22,14.80
2013,07,16,00,23,14.80
2013,07,16,00,24,14.80
2013,07,16,00,25,14.80
2013,07,16,00,26,14.80
2013,07,16,00,27,14.70
2013,07,16,00,28,14.70
2013,07,16,00,29,14.70
2013,07,16,00,30,14.70
2013,07,16,00,31,14.70
2013,07,16,00,32,14.70
2013,07,16,00,33,14.70
2013,07,16,00,34,14.70
2013,07,16,00,35,14.60
2013,07,16,00,36,14.60
2013,07,16,00,37,14.60
2013,07,16,00,38,14.60
2013,07,16,00,39,14.60
2013,07,16,00,40,14.60
2013,07,16,00,41,14.50
2013,07,16,00,42,14.50
2013,07,16,00,43,14.50
2013,07,16,00,44,14.50
2013,07,16,00,45,14.50
2013,07,16,00,46,14.40
2013,07,16,00,47,14.40
2013,07,16,00,48,14.40
2013,07,16,00,49,14.40
2013,07,16,00,50,14.40
2013,07,16,00,51,14.40
2013,07,16,00,52,14.40
2013,07,16,00,53,14.30
2013,07,16,00,54,14.30
2013,07,16,00,55,14.30
2013,07,16,00,56,14.30
2013,07,16,00,57,14.30
2013,07,16,00,58,14.30
2013,07,16,00,59,14.30
2013,07,16,01,00,14.20
2013,07,16,01,01,14.20
2013,07,16,01,02,14.20
2013,07,16,01,03,14.20
2013,07,16,01,04,14.20
2013,07,16,01,05,14.20
2013,07,16,01,06,14.10
2013,07,16,01,07,14.10
2013,07,16,01,08,14.10
2013,07,16,01,09,14.10
2013,07,16,01,10,14.00
2013,07,16,01,11,14.00
2013,07,16,01,12,14.00
2013,07,16,01,13,14.00
2013,07,16,01,14,13.90
2013,07,16,01,15,13.90
2013,07,16,01,16,13.90
2013,07,16,01,17,13.90
2013,07,16,01,18,13.90
2013,07,16,01,19,13.90
2013,07,16,01,20,13.80
2013,07,16,01,21,13.80
2013,07,16,01,22,13.80
2013,07,16,01,23,13.80
2013,07,16,01,24,13.80
2013,07,16,01,25,13.80
2013,07,16,01,26,13.80
2013,07,16,01,27,13.80
2013,07,16,01,28,13.80
2013,07,16,01,29,13.80
2013,07,16,01,30,13.80
2013,07,16,01,31,13.80
2013,07,16,01,32,13.80
2013,07,16,01,33,13.70
2013,07,16,01,34,13.70
2013,07,16,01,35,13.70
2013,07,16,01,36,13.70
2013,07,16,01,37,13.70
2013,07,16,01,38,13.70
2013,07,16,01,39,13.70
2013,07,16,01,40,13.70
2013,07,16,01,41,13.70
2013,07,16,01,42,13.70
2013,07,16,01,43,13.70
2013,07,16,01,44,13.70
2013,07,16,01,45,13.60
2013,07,16,01,46,13.60
2013,07,16,01,47,13.60
2013,07,16,01,48,13.60
2013,07,16,01,49,13.60
2013,07,16,01,50,13.60
2013,07,16,01,51,13.60
2013,07,16,01,52,13.60
2013,07,16,01,53,13.60
2013,07,16,01,54,13.60
2013,07,16,01,55,13.60
2013,07,16,01,56,13.50
2013,07,16,01,57,13.50
2013,07,16,01,58,13.50
2013,07,16,01,59,13.50
2013,07,16,02,00,13.50
2013,07,16,02,01,13.40
2013,07,16,02,02,13.40
2013,07,16,02,03,13.40
2013,07,16,02,04,13.40
2013,07,16,02,05,13.40
2013,07,16,02,06,13.40
2013,07,16,02,07,13.30
2013,07,16,02,08,13.30
2013,07,16,02,09,13.30
2013,07,16,02,10,13.30
2013,07,16,02,11,13.30
2013,07,16,02,12,13.20
2013,07,16,02,13,13.20
2013,07,16,02,14,13.20
2013,07,16,02,15,13.20
2013,07,16,02,16,13.20
2013,07,16,02,17,13.10
2013,07,16,02,18,13.10
2013,07,16,02,19,13.10
2013,07,16,02,20,13.10
2013,07,16,02,21,13.10
2013,07,16,02,22,13.00
2013,07,16,02,23,13.00
2013,07,16,02,24,13.00
2013,07,16,02,25,13.00
2013,07,16,02,26,12.90
2013,07,16,02,27,12.90
2013,07,16,02,28,12.90
2013,07,16,02,29,12.90
2013,07,16,02,30,12.90
2013,07,16,02,31,12.90
2013,07,16,02,32,12.90
2013,07,16,02,33,12.90
2013,07,16,02,34,12.90
2013,07,16,02,35,12.80
2013,07,16,02,36,12.80
2013,07,16,02,37,12.80
2013,07,16,02,38,12.80
2013,07,16,02,39,12.80
2013,07,16,02,40,12.80
2013,07,16,02,41,12.80
2013,07,16,02,42,12.80
2013,07,16,02,43,12.70
2013,07,16,02,44,12.70
2013,07,16,02,45,12.70
2013,07,16,02,46,12.70
2013,07,16,02,47,12.70
2013,07,16,02,48,12.70
2013,07,16,02,49,12.70
2013,07,16,02,50,12.70
2013,07,16,02,51,12.70
2013,07,16,02,52,12.70
2013,07,16,02,53,12.70
2013,07,16,02,54,12.70
2013,07,16,02,55,12.60
2013,07,16,02,56,12.60
2013,07,16,02,57,12.60
2013,07,16,02,58,12.60
2013,07,16,02,59,12.60
2013,07,16,03,00,12.60
2013,07,16,03,01,12.60
2013,07,16,03,02,12.60
2013,07,16,03,06,12.60
2013,07,16,03,07,12.60
2013,07,16,03,08,12.60
2013,07,16,03,09,12.60
2013,07,16,03,10,12.60
2013,07,16,03,11,12.60
2013,07,16,03,12,12.60
2013,07,16,03,13,12.50
2013,07,16,03,14,12.50
2013,07,16,03,15,12.60
2013,07,16,03,16,12.60
2013,07,16,03,17,12.60
2013,07,16,03,18,12.60
2013,07,16,03,19,12.60
2013,07,16,03,20,12.60
2013,07,16,03,21,12.60
2013,07,16,03,22,12.60
2013,07,16,03,23,12.50
2013,07,16,03,24,12.50
2013,07,16,03,25,12.50
2013,07,16,03,26,12.50
2013,07,16,03,27,12.50
2013,07,16,03,28,12.50
2013,07,16,03,29,12.40
2013,07,16,03,30,12.40
2013,07,16,03,31,12.40
2013,07,16,03,32,12.40
2013,07,16,03,33,12.40
2013,07,16,03,34,12.40
2013,07,16,03,35,12.40
2013,07,16,03,36,12.40
2013,07,16,03,37,12.40
2013,07,16,03,38,12.30
2013,07,16,03,39,12.30
2013,07,16,03,40,12.30
2013,07,16,03,41,12.30
2013,07,16,03,42,12.30
2013,07,16,03,43,12.30
2013,07,16,03,44,12.30
2013,07,16,03,45,12.30
2013,07,16,03,46,12.30
2013,07,16,03,47,12.30
2013,07,16,03,48,12.30
2013,07,16,03,49,12.30
2013,07,16,03,50,12.30
2013,07,16,03,51,12.30
2013,07,16,03,52,12.30
2013,07,16,03,53,12.30
2013,07,16,03,54,12.30
2013,07,16,03,55,12.30
2013,07,16,03,56,12.30
2013,07,16,03,57,12.30
2013,07,16,03,58,12.30
2013,07,16,03,59,12.30
2013,07,16,04,00,12.30
2013,07,16,04,01,12.30
2013,07,16,04,02,12.30
2013,07,16,04,03,12.30
2013,07,16,04,04,12.30
2013,07,16,04,05,12.30
2013,07,16,04,06,12.30
2013,07,16,04,07,12.20
2013,07,16,04,08,12.20
2013,07,16,04,09,12.20
2013,07,16,04,10,12.20
2013,07,16,04,11,12.20
2013,07,16,04,12,12.20
2013,07,16,04,13,12.20
2013,07,16,04,14,12.20
2013,07,16,04,15,12.10
2013,07,16,04,16,12.10
2013,07,16,04,17,12.10
2013,07,16,04,18,12.10
2013,07,16,04,19,12.10
2013,07,16,04,20,12.10
2013,07,16,04,21,12.00
2013,07,16,04,22,12.00
2013,07,16,04,23,12.00
2013,07,16,04,24,12.00
2013,07,16,04,25,11.90
2013,07,16,04,26,11.90
2013,07,16,04,27,11.90
2013,07,16,04,28,11.90
2013,07,16,04,29,11.90
2013,07,16,04,30,11.90
2013,07,16,04,31,11.80
2013,07,16,04,32,11.80
2013,07,16,04,33,11.80
2013,07,16,04,34,11.80
2013,07,16,04,35,11.80
2013,07,16,04,36,11.80
2013,07,16,04,37,11.80
2013,07,16,04,38,11.70
2013,07,16,04,39,11.70
2013,07,16,04,40,11.70
2013,07,16,04,41,11.70
2013,07,16,04,42,11.70
2013,07,16,04,43,11.60
2013,07,16,04,44,11.60
2013,07,16,04,45,11.60
2013,07,16,04,46,11.60
2013,07,16,04,47,11.60
2013,07,16,04,48,11.60
2013,07,16,04,49,11.50
2013,07,16,04,50,11.50
2013,07,16,04,51,11.50
2013,07,16,04,52,11.50
2013,07,16,04,53,11.50
2013,07,16,04,54,11.50
2013,07,16,04,55,11.40
2013,07,16,04,56,11.40
2013,07,16,04,57,11.40
2013,07,16,04,58,11.40
2013,07,16,04,59,11.40
2013,07,16,05,00,11.40
2013,07,16,05,01,11.40
2013,07,16,05,02,11.40
2013,07,16,05,03,11.30
2013,07,16,05,04,11.30
2013,07,16,05,05,11.30
2013,07,16,05,06,11.30
2013,07,16,05,07,11.30
2013,07,16,05,08,11.30
2013,07,16,05,09,11.30
2013,07,16,05,10,11.30
2013,07,16,05,11,11.30
2013,07,16,05,12,11.30
2013,07,16,05,13,11.30
2013,07,16,05,14,11.30
2013,07,16,05,15,11.30
2013,07,16,05,16,11.30
2013,07,16,05,17,11.30
2013,07,16,05,18,11.30
2013,07,16,05,19,11.30
2013,07,16,05,20,11.30
2013,07,16,05,21,11.30
2013,07,16,05,22,11.30
2013,07,16,05,23,11.30
2013,07,16,05,24,11.30
2013,07,16,05,25,11.30
2013,07,16,05,26,11.30
2013,07,16,05,27,11.30
2013,07,16,05,28,11.30
2013,07,16,05,29,11.30
2013,07,16,05,30,11.30
2013,07,16,05,31,11.30
2013,07,16,05,32,11.30
2013,07,16,05,33,11.30
2013,07,16,05,34,11.30
2013,07,16,05,35,11.30
2013,07,16,05,36,11.30
2013,07,16,05,37,11.30
2013,07,16,05,38,11.30
2013,07,16,05,39,11.30
2013,07,16,05,40,11.30
2013,07,16,05,41,11.30
2013,07,16,05,42,11.30
2013,07,16,05,43,11.30
2013,07,16,05,44,11.20
2013,07,16,05,45,11.20
2013,07,16,05,46,11.20
2013,07,16,05,47,11.20
2013,07,16,05,48,11.20
2013,07,16,05,49,11.20
2013,07,16,05,50,11.20
2013,07,16,05,51,11.20
2013,07,16,05,52,11.20
2013,07,16,05,53,11.20
2013,07,16,05,54,11.20
2013,07,16,05,55,11.20
2013,07,16,05,56,11.20
2013,07,16,05,57,11.20
2013,07,16,05,58,11.20
2013,07,16,05,59,11.20
2013,07,16,06,00,11.20
2013,07,16,06,01,11.20
2013,07,16,06,02,11.20
2013,07,16,06,03,11.20
2013,07,16,06,04,11.20
2013,07,16,06,05,11.20
2013,07,16,06,06,11.20
2013,07,16,06,07,11.20
2013,07,16,06,08,11.20
2013,07,16,06,09,11.20
2013,07,16,06,10,11.20
2013,07,16,06,11,11.20
2013,07,16,06,12,11.20
2013,07,16,06,13,11.20
2013,07,16,06,14,11.20
2013,07,16,06,15,11.10
2013,07,16,06,16,11.10
2013,07,16,06,17,11.10
2013,07,16,06,18,11.10
2013,07,16,06,19,11.10
2013,07,16,06,20,11.10
2013,07,16,06,21,11.10
2013,07,16,06,22,11.10
2013,07,16,06,23,11.10
2013,07,16,06,24,11.10
2013,07,16,06,25,11.10
2013,07,16,06,26,11.10
2013,07,16,06,27,11.10
2013,07,16,06,28,11.10
2013,07,16,06,29,11.10
2013,07,16,06,30,11.10
2013,07,16,06,31,11.10
2013,07,16,06,32,11.10
2013,07,16,06,33,11.10
2013,07,16,06,34,11.10
2013,07,16,06,35,11.10
2013,07,16,06,36,11.20
2013,07,16,06,37,11.20
2013,07,16,06,38,11.20
2013,07,16,06,39,11.20
2013,07,16,06,40,11.20
2013,07,16,06,41,11.20
2013,07,16,06,42,11.20
2013,07,16,06,43,11.30
2013,07,16,06,44,11.30
2013,07,16,06,45,11.30
2013,07,16,06,46,11.40
2013,07,16,06,47,11.40
2013,07,16,06,48,11.40
2013,07,16,06,49,11.50
2013,07,16,06,50,11.50
2013,07,16,06,51,11.60
2013,07,16,06,52,11.60
2013,07,16,06,53,11.70
2013,07,16,06,54,11.70
2013,07,16,06,55,11.80
2013,07,16,06,56,11.80
2013,07,16,06,57,11.90
2013,07,16,06,58,11.90
2013,07,16,06,59,12.00
2013,07,16,07,00,12.10
2013,07,16,07,01,12.10
2013,07,16,07,02,12.20
2013,07,16,07,03,12.20
2013,07,16,07,04,12.20
2013,07,16,07,05,12.30
2013,07,16,07,06,12.30
2013,07,16,07,07,12.30
2013,07,16,07,08,12.40
2013,07,16,07,09,12.40
2013,07,16,07,10,12.40
2013,07,16,07,11,12.50
2013,07,16,07,12,12.50
2013,07,16,07,13,12.50
2013,07,16,07,14,12.60
2013,07,16,07,15,12.60
2013,07,16,07,16,12.60
2013,07,16,07,17,12.60
2013,07,16,07,18,12.70
2013,07,16,07,19,12.70
2013,07,16,07,20,12.70
2013,07,16,07,21,12.80
2013,07,16,07,22,12.80
2013,07,16,07,23,12.80
2013,07,16,07,24,12.80
2013,07,16,07,25,12.80
2013,07,16,07,26,12.80
2013,07,16,07,27,12.90
2013,07,16,07,28,12.90
2013,07,16,07,29,13.00
2013,07,16,07,30,13.00
2013,07,16,07,31,13.10
2013,07,16,07,32,13.20
2013,07,16,07,33,13.30
2013,07,16,07,34,13.30
2013,07,16,07,35,13.40
2013,07,16,07,36,13.50
2013,07,16,07,37,13.60
2013,07,16,07,38,13.60
2013,07,16,07,39,13.70
2013,07,16,07,40,13.70
2013,07,16,07,41,13.70
2013,07,16,07,42,13.80
2013,07,16,07,43,13.80
2013,07,16,07,44,13.80
2013,07,16,07,45,13.80
2013,07,16,07,46,13.90
2013,07,16,07,47,13.90
2013,07,16,07,48,13.90
2013,07,16,07,49,14.00
2013,07,16,07,50,14.00
2013,07,16,07,51,14.10
2013,07,16,07,52,14.10
2013,07,16,07,53,14.10
2013,07,16,07,54,14.10
2013,07,16,07,55,14.20
2013,07,16,07,56,14.20
2013,07,16,07,57,14.20
2013,07,16,07,58,14.30
2013,07,16,07,59,14.30
2013,07,16,08,00,14.30
2013,07,16,08,01,14.40
2013,07,16,08,02,14.40
2013,07,16,08,03,14.50
2013,07,16,08,04,14.50
2013,07,16,08,05,14.60
2013,07,16,08,06,14.70
2013,07,16,08,07,14.70
2013,07,16,08,08,14.80
2013,07,16,08,09,14.90
2013,07,16,08,10,15.00
2013,07,16,08,11,15.00
2013,07,16,08,12,15.00
2013,07,16,08,13,15.20
2013,07,16,08,14,15.30
2013,07,16,08,15,15.50
2013,07,16,08,16,15.60
2013,07,16,08,17,15.80
2013,07,16,08,18,15.90
2013,07,16,08,19,16.10
2013,07,16,08,20,16.30
2013,07,16,08,21,16.50
2013,07,16,08,22,16.70
2013,07,16,08,23,16.90
2013,07,16,08,24,17.10
2013,07,16,08,25,17.30
2013,07,16,08,26,17.40
2013,07,16,08,27,17.50
2013,07,16,08,28,17.70
2013,07,16,08,29,17.80
2013,07,16,08,30,18.00
2013,07,16,08,31,18.10
2013,07,16,08,32,18.30
2013,07,16,08,33,18.40
2013,07,16,08,34,18.50
2013,07,16,08,35,18.60
2013,07,16,08,36,18.60
2013,07,16,08,37,18.70
2013,07,16,08,38,18.70
2013,07,16,08,39,18.80
2013,07,16,08,40,18.80
2013,07,16,08,41,18.90
2013,07,16,08,42,19.00
2013,07,16,08,43,19.10
2013,07,16,08,44,19.20
2013,07,16,08,45,19.30
2013,07,16,08,46,19.40
2013,07,16,08,47,19.40
2013,07,16,08,48,19.60
2013,07,16,08,49,19.70
2013,07,16,08,50,19.80
2013,07,16,08,51,20.00
2013,07,16,08,52,20.20
2013,07,16,08,53,20.40
2013,07,16,08,54,20.60
2013,07,16,08,55,20.80
2013,07,16,08,56,21.00
2013,07,16,08,57,21.10
2013,07,16,08,58,21.30
2013,07,16,08,59,21.40
2013,07,16,09,00,21.50
2013,07,16,09,01,21.70
2013,07,16,09,02,21.80
2013,07,16,09,03,21.90
2013,07,16,09,04,22.00
2013,07,16,09,05,22.10
2013,07,16,09,06,22.20
2013,07,16,09,07,22.30
2013,07,16,09,08,22.30
2013,07,16,09,09,22.40
2013,07,16,09,10,22.50
2013,07,16,09,11,22.50
2013,07,16,09,12,22.60
2013,07,16,09,13,22.70
2013,07,16,09,14,22.70
2013,07,16,09,15,22.80
2013,07,16,09,16,22.80
2013,07,16,09,17,22.90
2013,07,16,09,18,22.90
2013,07,16,09,19,23.00
2013,07,16,09,20,23.00
2013,07,16,09,21,23.10
2013,07,16,09,22,23.20
2013,07,16,09,23,23.20
2013,07,16,09,24,23.20
2013,07,16,09,25,23.30
2013,07,16,09,26,23.30
2013,07,16,09,27,23.40
2013,07,16,09,28,23.40
2013,07,16,09,29,23.40
2013,07,16,09,30,23.40
2013,07,16,09,31,23.40
2013,07,16,09,32,23.40
2013,07,16,09,33,23.50
2013,07,16,09,34,23.50
2013,07,16,09,35,23.60
2013,07,16,09,36,23.60
2013,07,16,09,37,23.60
2013,07,16,09,38,23.70
2013,07,16,09,39,23.70
2013,07,16,09,40,23.70
2013,07,16,09,41,23.70
2013,07,16,09,42,23.80
2013,07,16,09,43,23.80
2013,07,16,09,44,23.80
2013,07,16,09,45,23.80
2013,07,16,09,46,23.80
2013,07,16,09,47,23.80
2013,07,16,09,48,23.80
2013,07,16,09,49,23.80
2013,07,16,09,50,23.80
2013,07,16,09,51,23.80
2013,07,16,09,52,23.90
2013,07,16,09,53,23.90
2013,07,16,09,54,24.00
2013,07,16,09,55,24.00
2013,07,16,09,56,24.10
2013,07,16,09,57,24.10
2013,07,16,09,58,24.20
2013,07,16,09,59,24.30
2013,07,16,10,00,24.30
2013,07,16,10,01,24.40
2013,07,16,10,02,24.40
2013,07,16,10,03,24.40
2013,07,16,10,04,24.50
2013,07,16,10,05,24.60
2013,07,16,10,06,24.60
2013,07,16,10,07,24.60
2013,07,16,10,08,24.60
2013,07,16,10,09,24.60
2013,07,16,10,10,24.60
2013,07,16,10,11,24.60
2013,07,16,10,12,24.60
2013,07,16,10,13,24.60
2013,07,16,10,14,24.60
2013,07,16,10,15,24.70
2013,07,16,10,16,24.70
2013,07,16,10,17,24.70
2013,07,16,10,18,24.70
2013,07,16,10,19,24.70
2013,07,16,10,20,24.80
2013,07,16,10,21,24.80
2013,07,16,10,22,24.80
2013,07,16,10,23,24.80
2013,07,16,10,24,24.80
2013,07,16,10,25,24.80
2013,07,16,10,26,24.80
2013,07,16,10,27,24.90
2013,07,16,10,28,24.90
2013,07,16,10,29,25.00
2013,07,16,10,30,25.00
2013,07,16,10,31,25.10
2013,07,16,10,32,25.20
2013,07,16,10,33,25.20
2013,07,16,10,34,25.30
2013,07,16,10,35,25.40
2013,07,16,10,36,25.40
2013,07,16,10,37,25.50
2013,07,16,10,38,25.50
2013,07,16,10,39,25.50
2013,07,16,10,40,25.50
2013,07,16,10,41,25.50
2013,07,16,10,42,25.40
2013,07,16,10,43,25.40
2013,07,16,10,44,25.40
2013,07,16,10,45,25.40
2013,07,16,10,46,25.30
2013,07,16,10,47,25.30
2013,07,16,10,48,25.30
2013,07,16,10,49,25.30
2013,07,16,10,50,25.40
2013,07,16,10,51,25.40
2013,07,16,10,52,25.40
2013,07,16,10,53,25.40
2013,07,16,10,54,25.40
2013,07,16,10,55,25.40
2013,07,16,10,56,25.40
2013,07,16,10,57,25.50
2013,07,16,10,58,25.50
2013,07,16,10,59,25.60
2013,07,16,11,00,25.60
2013,07,16,11,01,25.70
2013,07,16,11,02,25.70
2013,07,16,11,03,25.80
2013,07,16,11,04,25.90
2013,07,16,11,05,25.90
2013,07,16,11,06,25.90
2013,07,16,11,07,25.90
2013,07,16,11,08,25.90
2013,07,16,11,09,26.00
2013,07,16,11,10,26.10
2013,07,16,11,11,26.10
2013,07,16,11,12,26.20
2013,07,16,11,13,26.30
2013,07,16,11,14,26.30
2013,07,16,11,15,26.30
2013,07,16,11,16,26.40
2013,07,16,11,17,26.40
2013,07,16,11,18,26.50
2013,07,16,11,19,26.50
2013,07,16,11,20,26.60
2013,07,16,11,21,26.60
2013,07,16,11,22,26.60
2013,07,16,11,23,26.60
2013,07,16,11,24,26.70
2013,07,16,11,25,26.70
2013,07,16,11,26,26.80
2013,07,16,11,27,26.80
2013,07,16,11,28,26.90
2013,07,16,11,29,26.90
2013,07,16,11,30,27.00
2013,07,16,11,31,27.00
2013,07,16,11,32,27.00
2013,07,16,11,33,27.10
2013,07,16,11,34,27.10
2013,07,16,11,35,27.10
2013,07,16,11,36,27.20
2013,07,16,11,37,27.20
2013,07,16,11,38,27.10
2013,07,16,11,39,27.10
2013,07,16,11,40,27.00
2013,07,16,11,41,26.90
2013,07,16,11,42,26.90
2013,07,16,11,43,26.90
2013,07,16,11,44,26.90
2013,07,16,11,45,26.80
2013,07,16,11,46,26.70
2013,07,16,11,47,26.70
2013,07,16,11,48,26.70
2013,07,16,11,49,26.70
2013,07,16,11,50,26.60
2013,07,16,11,51,26.70
2013,07,16,11,52,26.70
2013,07,16,11,53,26.70
2013,07,16,11,54,26.80
2013,07,16,11,55,26.80
2013,07,16,11,56,26.80
2013,07,16,11,57,26.80
2013,07,16,11,58,26.80
2013,07,16,11,59,26.80
2013,07,16,12,00,26.80
2013,07,16,12,01,26.80
2013,07,16,12,02,26.70
2013,07,16,12,03,26.70
2013,07,16,12,04,26.70
2013,07,16,12,05,26.70
2013,07,16,12,06,26.70
2013,07,16,12,07,26.70
2013,07,16,12,08,26.80
2013,07,16,12,09,26.90
2013,07,16,12,10,26.90
2013,07,16,12,11,27.00
2013,07,16,12,12,27.10
2013,07,16,12,13,27.10
2013,07,16,12,14,27.10
2013,07,16,12,15,27.10
2013,07,16,12,16,27.10
2013,07,16,12,17,27.10
2013,07,16,12,18,27.20
2013,07,16,12,19,27.20
2013,07,16,12,20,27.20
2013,07,16,12,21,27.20
2013,07,16,12,22,27.30
2013,07,16,12,23,27.40
2013,07,16,12,24,27.50
2013,07,16,12,25,27.60
2013,07,16,12,26,27.60
2013,07,16,12,27,27.70
2013,07,16,12,28,27.70
2013,07,16,12,29,27.70
2013,07,16,12,30,27.70
2013,07,16,12,31,27.70
2013,07,16,12,32,27.70
2013,07,16,12,33,27.70
2013,07,16,12,34,27.60
2013,07,16,12,35,27.50
2013,07,16,12,36,27.40
2013,07,16,12,37,27.50
2013,07,16,12,38,27.60
2013,07,16,12,39,27.60
2013,07,16,12,40,27.70
2013,07,16,12,41,27.70
2013,07,16,12,42,27.80
2013,07,16,12,43,27.90
2013,07,16,12,44,27.90
2013,07,16,12,45,27.90
2013,07,16,12,46,28.00
2013,07,16,12,47,28.00
2013,07,16,12,48,28.00
2013,07,16,12,49,28.10
2013,07,16,12,50,28.10
2013,07,16,12,51,28.10
2013,07,16,12,52,28.00
2013,07,16,12,53,28.00
2013,07,16,12,54,28.00
2013,07,16,12,55,28.00
2013,07,16,12,56,28.00
2013,07,16,12,57,28.00
2013,07,16,12,58,28.00
2013,07,16,12,59,28.00
2013,07,16,13,00,28.10
2013,07,16,13,01,28.10
2013,07,16,13,02,28.10
2013,07,16,13,03,28.10
2013,07,16,13,04,28.00
2013,07,16,13,05,28.00
2013,07,16,13,06,28.00
2013,07,16,13,07,28.00
2013,07,16,13,08,28.10
2013,07,16,13,09,28.10
2013,07,16,13,10,28.10
2013,07,16,13,11,28.20
2013,07,16,13,12,28.20
2013,07,16,13,13,28.20
2013,07,16,13,14,28.20
2013,07,16,13,15,28.30
2013,07,16,13,16,28.40
2013,07,16,13,17,28.50
2013,07,16,13,18,28.60
2013,07,16,13,19,28.60
2013,07,16,13,20,28.60
2013,07,16,13,21,28.60
2013,07,16,13,22,28.60
2013,07,16,13,23,28.60
2013,07,16,13,24,28.60
2013,07,16,13,25,28.60
2013,07,16,13,26,28.70
2013,07,16,13,27,28.70
2013,07,16,13,28,28.80
2013,07,16,13,29,28.90
2013,07,16,13,30,29.00
2013,07,16,13,31,29.10
2013,07,16,13,32,29.30
2013,07,16,13,33,29.40
2013,07,16,13,34,29.60
2013,07,16,13,35,29.70
2013,07,16,13,36,29.70
2013,07,16,13,37,29.70
2013,07,16,13,38,29.70
2013,07,16,13,39,29.70
2013,07,16,13,40,29.70
2013,07,16,13,41,29.70
2013,07,16,13,42,29.70
2013,07,16,13,43,29.70
2013,07,16,13,44,29.70
2013,07,16,13,45,29.70
2013,07,16,13,46,29.70
2013,07,16,13,47,29.70
2013,07,16,13,48,29.70
2013,07,16,13,49,29.70
2013,07,16,13,50,29.70
2013,07,16,13,51,29.70
2013,07,16,13,52,29.70
2013,07,16,13,53,29.70
2013,07,16,13,54,29.60
2013,07,16,13,55,29.60
2013,07,16,13,56,29.60
2013,07,16,13,57,29.60
2013,07,16,13,58,29.50
2013,07,16,13,59,29.50
2013,07,16,14,00,29.50
2013,07,16,14,01,29.40
2013,07,16,14,02,29.40
2013,07,16,14,03,29.40
2013,07,16,14,04,29.40
2013,07,16,14,05,29.40
2013,07,16,14,06,29.30
2013,07,16,14,07,29.30
2013,07,16,14,08,29.30
2013,07,16,14,09,29.20
2013,07,16,14,10,29.10
2013,07,16,14,11,29.00
2013,07,16,14,12,28.90
2013,07,16,14,13,28.80
2013,07,16,14,14,28.80
2013,07,16,14,15,28.70
2013,07,16,14,16,28.70
2013,07,16,14,17,28.70
2013,07,16,14,18,28.70
2013,07,16,14,19,28.70
2013,07,16,14,20,28.70
2013,07,16,14,21,28.60
2013,07,16,14,22,28.60
2013,07,16,14,23,28.60
2013,07,16,14,24,28.60
2013,07,16,14,25,28.60
2013,07,16,14,26,28.60
2013,07,16,14,27,28.70
2013,07,16,14,28,28.70
2013,07,16,14,29,28.70
2013,07,16,14,30,28.70
2013,07,16,14,31,28.80
2013,07,16,14,32,28.80
2013,07,16,14,33,28.80
2013,07,16,14,34,28.80
2013,07,16,14,35,28.80
2013,07,16,14,36,28.80
2013,07,16,14,37,28.70
2013,07,16,14,38,28.70
2013,07,16,14,39,28.70
2013,07,16,14,40,28.60
2013,07,16,14,41,28.60
2013,07,16,14,42,28.60
2013,07,16,14,43,28.60
2013,07,16,14,44,28.50
2013,07,16,14,45,28.40
2013,07,16,14,46,28.40
2013,07,16,14,47,28.40
2013,07,16,14,48,28.40
2013,07,16,14,49,28.40
2013,07,16,14,50,28.50
2013,07,16,14,51,28.50
2013,07,16,14,52,28.60
2013,07,16,14,53,28.60
2013,07,16,14,54,28.60
2013,07,16,14,55,28.60
2013,07,16,14,56,28.70
2013,07,16,14,57,28.70
2013,07,16,14,58,28.70
2013,07,16,14,59,28.70
2013,07,16,15,00,28.70
2013,07,16,15,01,28.70
2013,07,16,15,02,28.60
2013,07,16,15,03,28.60
2013,07,16,15,04,28.60
2013,07,16,15,05,28.50
2013,07,16,15,06,28.50
2013,07,16,15,07,28.50
2013,07,16,15,08,28.60
2013,07,16,15,09,28.60
2013,07,16,15,10,28.60
2013,07,16,15,11,28.60
2013,07,16,15,12,28.70
2013,07,16,15,13,28.70
2013,07,16,15,14,28.70
2013,07,16,15,15,28.70
2013,07,16,15,16,28.70
2013,07,16,15,17,28.60
2013,07,16,15,18,28.60
2013,07,16,15,19,28.60
2013,07,16,15,20,28.50
2013,07,16,15,21,28.40
2013,07,16,15,22,28.40
2013,07,16,15,23,28.40
2013,07,16,15,24,28.30
2013,07,16,15,25,28.30
2013,07,16,15,26,28.20
2013,07,16,15,27,28.20
2013,07,16,15,28,28.20
2013,07,16,15,29,28.20
2013,07,16,15,30,28.20
2013,07,16,15,31,28.10
2013,07,16,15,32,28.10
2013,07,16,15,33,28.10
2013,07,16,15,34,28.10
2013,07,16,15,35,28.10
2013,07,16,15,36,28.10
2013,07,16,15,37,28.10
2013,07,16,15,38,28.10
2013,07,16,15,39,28.10
2013,07,16,15,40,28.20
2013,07,16,15,41,28.20
2013,07,16,15,42,28.20
2013,07,16,15,43,28.20
2013,07,16,15,44,28.20
2013,07,16,15,45,28.20
2013,07,16,15,46,28.20
2013,07,16,15,47,28.20
2013,07,16,15,48,28.20
2013,07,16,15,49,28.20
2013,07,16,15,50,28.10
2013,07,16,15,51,28.20
2013,07,16,15,52,28.20
2013,07,16,15,53,28.20
2013,07,16,15,54,28.20
2013,07,16,15,55,28.20
2013,07,16,15,56,28.20
2013,07,16,15,57,28.20
2013,07,16,15,58,28.20
2013,07,16,15,59,28.20
2013,07,16,16,00,28.30
2013,07,16,16,01,28.30
2013,07,16,16,02,28.30
2013,07,16,16,03,28.30
2013,07,16,16,04,28.30
2013,07,16,16,05,28.30
2013,07,16,16,06,28.30
2013,07,16,16,07,28.20
2013,07,16,16,08,28.20
2013,07,16,16,09,28.20
2013,07,16,16,10,28.30
2013,07,16,16,11,28.30
2013,07,16,16,12,28.30
2013,07,16,16,13,28.30
2013,07,16,16,14,28.30
2013,07,16,16,15,28.30
2013,07,16,16,16,28.20
2013,07,16,16,17,28.20
2013,07,16,16,18,28.30
2013,07,16,16,19,28.30
2013,07,16,16,20,28.30
2013,07,16,16,21,28.20
2013,07,16,16,22,28.20
2013,07,16,16,23,28.20
2013,07,16,16,24,28.20
2013,07,16,16,25,28.20
2013,07,16,16,26,28.10
2013,07,16,16,27,28.10
2013,07,16,16,28,28.10
2013,07,16,16,29,28.00
2013,07,16,16,30,28.00
2013,07,16,16,31,28.00
2013,07,16,16,32,27.90
2013,07,16,16,33,27.90
2013,07,16,16,34,27.90
2013,07,16,16,35,27.90
2013,07,16,16,36,27.90
2013,07,16,16,37,27.90
2013,07,16,16,38,27.90
2013,07,16,16,39,27.90
2013,07,16,16,40,27.90
2013,07,16,16,41,27.90
2013,07,16,16,42,27.90
2013,07,16,16,43,27.90
2013,07,16,16,44,27.90
2013,07,16,16,45,27.90
2013,07,16,16,46,27.90
2013,07,16,16,47,27.90
2013,07,16,16,48,27.90
2013,07,16,16,49,27.80
2013,07,16,16,50,27.80
2013,07,16,16,51,27.80
2013,07,16,16,52,27.80
2013,07,16,16,53,27.80
2013,07,16,16,54,27.80
2013,07,16,16,55,27.80
2013,07,16,16,56,27.80
2013,07,16,16,57,27.80
2013,07,16,16,58,27.80
2013,07,16,16,59,27.80
2013,07,16,17,00,27.80
2013,07,16,17,01,27.70
2013,07,16,17,02,27.70
2013,07,16,17,03,27.70
2013,07,16,17,04,27.70
2013,07,16,17,05,27.60
2013,07,16,17,06,27.60
2013,07,16,17,07,27.60
2013,07,16,17,08,27.50
2013,07,16,17,09,27.50
2013,07,16,17,10,27.50
2013,07,16,17,11,27.40
2013,07,16,17,12,27.40
2013,07,16,17,13,27.40
2013,07,16,17,14,27.40
2013,07,16,17,15,27.40
2013,07,16,17,16,27.30
2013,07,16,17,17,27.30
2013,07,16,17,18,27.30
2013,07,16,17,19,27.30
2013,07,16,17,20,27.30
2013,07,16,17,21,27.30
2013,07,16,17,22,27.30